Location: Camp Creek
(33.9000°N, 111.8167°W)
Time: 12:16:25
(UTC-07:00)

DELTA 2 R/B (1) - Visible Passes

Search period start: 21 September 2017 00:00
Search period end: 01 October 2017 00:00
Orbit: 791 x 802 km, 39.6° (Epoch: 20 September)

Date Brightness Start Highest point End Pass type
(mag) Time Alt. Az. Time Alt. Az. Time Alt. Az.
21 Sep 6.0 02:48:40 18° ENE 02:48:40 18° ENE 02:50:03 10° ENE visible
21 Sep 4.2 04:29:26 36° NW 04:31:13 48° N 04:36:37 10° ENE visible
22 Sep 4.1 04:00:15 49° N 04:00:21 49° N 04:05:45 10° ENE visible
22 Sep 4.2 05:41:54 10° WNW 05:47:23 54° NNE 05:52:49 10° E visible
23 Sep 4.8 03:31:05 38° NE 03:31:05 38° NE 03:34:54 10° ENE visible
23 Sep 4.2 05:11:51 14° WNW 05:16:30 53° N 05:21:56 10° E visible
24 Sep 5.7 03:01:58 22° ENE 03:01:58 22° ENE 03:04:02 10° ENE visible
24 Sep 4.2 04:42:44 26° NW 04:45:37 51° N 04:51:03 10° E visible
25 Sep 6.4 02:32:51 12° ENE 02:32:51 12° ENE 02:33:11 10° ENE visible
25 Sep 4.1 04:13:38 44° NNW 04:14:44 50° N 04:20:10 10° E visible
26 Sep 4.4 03:44:37 46° NNE 03:44:37 46° NNE 03:49:16 10° E visible
26 Sep 3.6 05:25:24 12° WNW 05:30:38 87° SSW 05:36:12 10° ESE visible
27 Sep 5.4 03:15:38 28° ENE 03:15:38 28° ENE 03:18:22 10° E visible
27 Sep 3.5 04:56:27 25° WNW 04:59:47 88° NNE 05:05:22 10° ESE visible
28 Sep 6.3 02:46:46 14° ENE 02:46:46 14° ENE 02:47:30 10° ENE visible
28 Sep 3.5 04:27:34 53° WNW 04:28:56 83° NNE 04:34:32 10° ESE visible
29 Sep 3.8 03:58:47 67° E 03:58:47 67° E 04:03:40 10° ESE visible
29 Sep 4.4 05:39:36 11° W 05:44:16 33° SW 05:49:12 10° SSE visible
30 Sep 5.2 03:30:06 29° E 03:30:06 29° E 03:32:49 10° ESE visible
30 Sep 4.3 05:10:55 24° W 05:13:27 36° SW 05:18:30 10° SSE visible
